Flag for France Weather past 2 weeks in Tours, France

Now
55 °F

Clear.


Feels Like: 53 °F
Forecast: 47 / 65 °F
Wind: 8 mph from Northeast

Location: Tours Airport

Current Time: Sep 22, 2014 at 3:21:12 AM

Latest Report: Sep 22, 2014 at 3:00 AM


Visibility: N/A

Pressure: 30.21 "Hg

Humidity: 82%

Dew point: 50 °F

Location of ToursLocation

Historic Weather in Tours — Graph

°F

Tours temperature yesterday

Maximum temperature yesterday: 73 °F (at 3:00 PM)
Minimum temperature yesterday: 59 °F (at 5:30 AM)
Average temperature yesterday: 65 °F

Past Weeks' High & Low Weather Summary

 TemperatureHumidityPressure
High82 °F (Sep 8, 3:30 PM)100% (Sep 19, 8:00 AM)30.21 "Hg (Sep 19, 8:00 AM)
Low52 °F (Sep 11, 6:00 AM)34% (Sep 10, 5:30 PM)29.71 "Hg (Sep 17, 5:30 AM)
Average67 °F70%29.96 "Hg
* Reported Sep 7 2:00 AM — Sep 22 2:00 AM, Tours, Weather by CustomWeather, © 2014

Note: Actual official high and low records may vary slightly from our data, if they occured in-between our weather recording intervals... More about our weather records

Advertising

Tours weather history for previous 24 hours

 ConditionsComfort  
Time TempWeatherWind HumidityBarometerVisibility
2:00 AM
Sep 22
55 °FPassing clouds.9 mph88%30.21 "HgN/A
1:30 AM57 °FPassing clouds.9 mph82%30.21 "HgN/A
1:00 AM57 °FPassing clouds.9 mph82%30.21 "HgN/A
12:30 AM59 °FPassing clouds.9 mph77%30.21 "HgN/A
12:00 AM61 °FPassing clouds.9 mph77%30.21 "HgN/A
11:30 PM
Sep 21
61 °FPassing clouds.9 mph83%30.18 "HgN/A
11:00 PM63 °FPassing clouds.6 mph83%30.18 "HgN/A
10:30 PM63 °FPassing clouds.6 mph83%30.18 "HgN/A
10:00 PM63 °FPassing clouds.6 mph83%30.18 "HgN/A
9:30 PM63 °FPassing clouds.5 mph88%30.15 "HgN/A
9:00 PM64 °FPassing clouds.5 mph83%30.15 "HgN/A
8:30 PM64 °FPassing clouds.5 mph83%30.15 "HgN/A
8:00 PM64 °FSunny.3 mph83%30.12 "Hg10 mi
7:30 PM64 °FOvercast.3 mph88%30.12 "HgN/A
7:00 PM66 °FMostly cloudy.5 mph83%30.12 "HgN/A
6:30 PM66 °FPartly sunny.6 mph83%30.12 "HgN/A
6:00 PM66 °FPartly sunny.5 mph88%30.12 "HgN/A
5:30 PM64 °FBroken clouds.5 mph94%30.12 "HgN/A
5:00 PM64 °FLight rain. Mostly cloudy.8 mph88%30.12 "HgN/A
4:30 PM64 °FDrizzle. Broken clouds.6 mph88%30.12 "HgN/A
4:00 PM68 °FThunderstorms. Broken clouds.14 mph73%30.09 "HgN/A
3:30 PM72 °FBroken clouds.8 mph65%30.09 "HgN/A
3:00 PM73 °FMild.6 mph57%30.09 "HgN/A
2:30 PM72 °FBroken clouds.8 mph61%30.09 "HgN/A
2:00 PM70 °FPartly sunny.6 mph60%30.12 "HgN/A
1:30 PM72 °FMostly cloudy.3 mph65%30.09 "HgN/A
1:00 PM72 °FPartly sunny.5 mph65%30.09 "HgN/A
12:30 PM72 °FScattered clouds.3 mph65%30.09 "HgN/A
12:00 PM72 °FOvercast.6 mph65%30.09 "HgN/A
11:30 AM68 °FClear.3 mph73%30.09 "HgN/A
11:00 AM66 °FClear.5 mph78%30.09 "HgN/A
10:30 AM66 °FClear.6 mph78%30.09 "HgN/A
10:00 AM64 °FClear.3 mph83%30.07 "HgN/A
9:30 AM63 °FClear.3 mph88%30.07 "HgN/A
9:00 AM63 °FOvercast.5 mph88%30.07 "Hg4 mi
8:30 AM61 °FPartly cloudy.2 mph94%30.07 "HgN/A
8:00 AM61 °FPassing clouds.2 mph94%30.07 "Hg5 mi
7:30 AM61 °FPassing clouds.2 mph94%30.07 "Hg5 mi
7:00 AM61 °FFog.No wind94%30.04 "Hg1 mi
6:30 AM61 °FClear.2 mph94%30.04 "Hg2 mi
6:00 AM61 °FClear.1 mph94%30.04 "Hg10 mi
5:30 AM59 °FClear.2 mph100%30.04 "Hg10 mi
4:30 AM61 °FOvercast.2 mph94%30.04 "Hg4 mi
4:00 AM61 °FMostly cloudy.No wind100%30.04 "Hg6 mi
3:30 AM61 °FPassing clouds.2 mph94%30.04 "HgN/A
3:00 AM63 °FClear.5 mph88%30.04 "HgN/A
Weather by CustomWeather, © 2014

See weather overviewHow to use our weather pages